sat.trackr.live / text

‹ back to catalog

ONEWEB-0709

NORAD 55172 · 2023-004AJ

PAYLOAD ACTIVE UNKNOWN

§ Identity

Operator
Country
UK
Launch date
2023-01-10
Launch site
AFETR
Launch vehicle
Mass (kg)
RCS (m²)

Purposes: comms

External: N2YO · Heavens-Above · Gunter

§ Orbital elements

Epoch: 2026-09-19T01:11:06.732672Z

Period
109.81 min
Inclination
87.8960°
Eccentricity
0.0000967
Mean motion
13.11414928 rev/d
Perigee alt
1,217.0 km
Apogee alt
1,218.4 km
Semi-major
7,595.8 km
B*
1.1333e-3
RAAN
2.4165°
Arg perigee
87.4096°
Mean anomaly
272.7142°
Rev number
17,817

§ Raw data

ONEWEB-07091 55172U 23004AJ  26262.04938348  .00000414  00000+0  11333-2 0  99972 55172  87.8960   2.4165 0000967  87.4096 272.7142 13.11414928178177

JSON: /api/v1/satellites/55172 · /tle

For live sub-satellite position, see the globe view (requires WebGL).

§ Visibility from observer

Set your observer location to see the next 7 days of passes ≥ 10°. The values pass through the URL so the page stays shareable.

No JS? Fill the form by hand. The geolocation button needs JavaScript.